Regional Weather Roundup
Issued by NWS

Home | Current Version | Previous Version | Graphics & Text | Print | Product List | Glossary Off
Versions: 1 2 3 4 5 6 7 8 9 10 11 12 13 14 15 16 17 18 19 20 21 22 23 24 25 26 27 28 29 30 31 32 33 34 35 36 37 38 39 40 41 42 43 44 45 46 47 48 49

000
ASUS43 KDMX 040707
RWRIA

WEATHER ROUNDUP FOR IOWA
NATIONAL WEATHER SERVICE DES MOINES IA
200 AM CDT SAT JUL 04 2015

NOTE: "FAIR" INDICATES FEW OR NO CLOUDS BELOW 12,000 FEET WITH NO
SIGNIFICANT WEATHER AND/OR OBSTRUCTIONS TO VISIBILITY.

* - THESE STATIONS ARE NOT NWS STATIONS...THUS NOT UNDER NWS
QUALITY CONTROL.  THEY ALSO DO NOT REPORT WEATHER SUCH
AS PRECIPITATION OR FOG.

IAZ001>003-012>014-020>022-031>034-043>046-040800-
   NORTHWEST IOWA

CITY           SKY/WX    TMP DP  RH WIND       PRES   REMARKS
CARROLL *      CLOUDY    55  55 100 CALM      29.99S
CHEROKEE *     CLEAR     57  57 100 CALM      29.99R
DENISON *      CLOUDY    55  55 100 CALM      29.98R
LE MARS *        N/A     59  57  94 CALM      29.99S
ORANGE CITY *  CLEAR     61  55  82 CALM      29.99R
SHELDON *      CLOUDY    59  59 100 CALM      29.98R
SIOUX CITY     CLEAR     62  57  83 E5        29.98R
SPENCER        CLEAR     59  54  83 W3        29.98S
STORM LAKE *   CLEAR     61  54  77 SW7       30.00R
$$

IAZ055>058-069>071-079>083-090>094-040800-
   SOUTHWEST IOWA

CITY           SKY/WX    TMP DP  RH WIND       PRES   REMARKS
ATLANTIC *     CLOUDY    55  55 100 CALM      30.00S
AUDUBON *      CLEAR     52  48  87 CALM      30.01S
CLARINDA *     CLEAR     57  57 100 CALM      30.01S FOG
COUNCIL BLFS * MOCLDY    63  54  72 S6        29.99S
CRESTON *      CLEAR     61  57  88 S5        30.00S
HARLAN  *      CLEAR     54  54 100 CALM      30.03R
LAMONI         CLEAR     62  56  80 SE3       30.00S
RED OAK *      CLOUDY    55  55 100 CALM      30.00S
SHENANDOAH *   CLEAR     59  57  94 CALM      30.00S
$$

IAZ047>049-059>061-072>074-084-040800-
   CENTRAL IOWA

CITY           SKY/WX    TMP DP  RH WIND       PRES   REMARKS
AMES           CLEAR     57  55  93 CALM      29.98S
ANKENY *       CLEAR     57  57 100 CALM      29.98S FOG
CHARITON *     CLOUDY    59  57  94 S3        29.99S
DES MOINES     PTCLDY    64  57  78 CALM      29.98S
GRINNELL*      CLEAR     61  55  82 SW5       29.99F
KNOXVILLE *    CLEAR     61  55  82 SW5       29.98S
MARSHALLTOWN   CLEAR     60  59  96 CALM      29.97F
PELLA *        CLEAR     59  59 100 CALM      29.99F
PERRY *          N/A     57  55  94 CALM      29.99S
$$

IAZ004>006-015-016-023>025-035-036-040800-
   NORTH CENTRAL IOWA

CITY           SKY/WX    TMP DP  RH WIND       PRES   REMARKS
ALGONA *       CLOUDY    63  57  82 SW8       29.98S
CLARION *      CLEAR     59  54  82 S5        29.98S
ESTHERVILLE    CLEAR     60  56  86 SW7       29.97S
FORT DODGE *   CLEAR     57  52  82 CALM      29.98F
MASON CITY     CLEAR     61  53  75 SW3       29.98S
FOREST CITY *  CLEAR     55  55 100 CALM      29.97S
IOWA FALLS *     N/A     59  54  82 CALM      29.99S
$$

IAZ007>011-017>019-026>030-037>042-050>054-066-040800-
   NORTHEAST IOWA

CITY           SKY/WX    TMP DP  RH WIND       PRES   REMARKS
CEDAR RAPIDS   CLEAR     57  57 100 CALM      29.97S
CHARLES CITY * CLEAR     59  59 100 SW5       29.97F
CLINTON *      CLEAR     57  55  94 W5        30.00S
DECORAH *        N/A    N/A N/A N/A MISG        N/A
DUBUQUE        CLEAR     57  54  89 SW3       29.97S
MONTICELLO *   CLEAR     55  55 100 CALM      29.97S
OELWEIN *      CLEAR     59  57  94 SW3       29.98S
WATERLOO       CLEAR     58  56  93 CALM      29.96S
$$

IAZ064-065-067-068-078-040800-
   EAST CENTRAL IOWA

CITY           SKY/WX    TMP DP  RH WIND       PRES   REMARKS
DAVENPORT      CLEAR     57  55  93 CALM      29.98S
IOWA CITY      CLEAR     59  56  89 CALM      29.99S
MT. PLEASANT * CLEAR     63  59  88 CALM      29.99S FOG
MUSCATINE *    CLEAR     61  57  88 CALM      29.98S
QUAD CITIES    CLEAR     60  57  89 CALM      29.97S FOG
$$

IAZ062-063-075>077-085>089-095>099-040800-
   SOUTHEAST IOWA

CITY           SKY/WX    TMP DP  RH WIND       PRES   REMARKS
BURLINGTON     CLEAR     60  59  96 N3        29.98S
FAIRFIELD *    CLEAR     59  55  88 CALM      29.99S
FORT MADISON * CLEAR     61  61 100 CALM      30.00R
KEOKUK *       CLEAR     63  61  94 CALM      29.98R FOG
OSKALOOSA *      N/A     57  55  94 CALM      29.99S
CENTERVILLE *  CLEAR     59  59 100 CALM      30.01S
OTTUMWA        CLEAR     56  54  93 CALM      29.97S
WASHINGTON *   CLEAR     57  57 100 CALM      30.00S
$$

ABBREVIATIONS USED IN REMARKS
   TC - TEMPERATURES IN CELSIUS
  WCI - WIND CHILL INDEX
   HX - HEAT INDEX
  VSB - VISIBILITY
$$




USA.gov is the U.S. government's official web portal to all federal, state and local government web resources and services.